Change the Weather History Date:

Tuesday, December 4, 2012

  Actual Average Record
Temperature  
Mean Temperature 42 °F 32 °F  
Max Temperature 50 °F 40 °F 59 °F (2014)
Min Temperature 33 °F 24 °F 3 °F (1992)
Degree Days  
Heating Degree Days 23 33  
Month to date heating degree days 73 129  
Since 1 July heating degree days 958 1347  
Cooling Degree Days 0 0  
Month to date cooling degree days 0 0  
Year to date cooling degree days 1615 1160  
Moisture  
Dew Point 33 °F    
Average Humidity 64    
Maximum Humidity 75    
Minimum Humidity 52    
Precipitation  
Precipitation T in 0.05 in 0.70 in (1998)
Month to date precipitation 0.17 0.19  
Year to date precipitation 11.45 14.88  
Snow  
Snow 0.00 in 0.40 in 8.70 in (1948)
Month to date snowfall 0.0 1.6  
Since 1 July snowfall 15.5 10.6  
Snow Depth 0.00 in    
Sea Level Pressure  
Sea Level Pressure 30.26 in    
Wind  
Wind Speed 8 mph (SSE)    
Max Wind Speed 15 mph    
Max Gust Speed 20 mph    
Visibility 10 miles    
Events Rain    
T = Trace of Precipitation, MM = Missing Value Source: NWS Daily Summary

Daily Weather History Graph

Daily Weather History Graph

Search for Another Location

Airport or City:

Trip Planner

Search our weather history database for the weather conditions in past years. The results will help you decide how hot, cold, wet, or windy it might be!

Date:

Astronomy

Dec. 04, 2012 Rise Set
Actual Time 7:36 AM MST 5:00 PM MST
Civil Twilight 7:05 AM MST 5:30 PM MST
Nautical Twilight 6:31 AM MST 6:05 PM MST
Astronomical Twilight 5:58 AM MST 6:38 PM MST
Moon 10:53 PM MST (12/4) 11:31 AM MST (12/4)
Length of Visible Light 10h 25m
Length of Day
9h 24m
Waning Gibbous, 69% of the Moon is Illuminated
Dec 4
Waning Gibbous
Dec 6
Last Quarter
Dec 13
New
Dec 19
First Quarter
Dec 28
Full

Hourly Weather History & Observations

Time (MST) Temp. Windchill Dew Point Humidity Pressure Visibility Wind Dir Wind Speed Gust Speed Precip Events Conditions
12:53 AM 33.1 °F 28.7 °F 26.1 °F 75% 30.28 in 10.0 mi South 4.6 mph - N/A   Partly Cloudy
1:53 AM 34.0 °F 26.6 °F 27.0 °F 75% 30.28 in 10.0 mi SE 9.2 mph - N/A   Partly Cloudy
2:53 AM 37.0 °F 31.0 °F 28.0 °F 70% 30.27 in 10.0 mi South 8.1 mph - N/A   Mostly Cloudy
3:53 AM 39.9 °F 32.5 °F 28.9 °F 65% 30.26 in 10.0 mi SSE 12.7 mph - N/A   Overcast
4:53 AM 39.0 °F 32.3 °F 28.9 °F 67% 30.29 in 10.0 mi SE 10.4 mph - N/A   Overcast
5:53 AM 39.9 °F 32.1 °F 28.0 °F 63% 30.28 in 10.0 mi SE 13.8 mph - N/A   Mostly Cloudy
6:53 AM 41.0 °F 33.9 °F 28.0 °F 60% 30.28 in 10.0 mi SE 12.7 mph - N/A   Overcast
7:53 AM 41.0 °F 37.1 °F 28.9 °F 62% 30.31 in 10.0 mi SE 5.8 mph - N/A   Mostly Cloudy
8:53 AM 43.0 °F 38.8 °F 30.0 °F 60% 30.31 in 10.0 mi ESE 6.9 mph - N/A   Overcast
9:53 AM 45.0 °F 42.6 °F 30.0 °F 56% 30.36 in 10.0 mi NE 4.6 mph - 0.00 in Rain Light Rain
10:53 AM 48.2 °F - 33.8 °F 58% 30.36 in 10.0 mi South 4.6 mph - N/A   Overcast
11:53 AM 46.0 °F 43.9 °F 35.1 °F 66% 30.33 in 10.0 mi South 4.6 mph - N/A   Overcast
12:53 PM 50.0 °F - 33.1 °F 52% 30.30 in 10.0 mi SE 8.1 mph - N/A   Overcast
1:53 PM 48.9 °F - 35.1 °F 59% 30.28 in 10.0 mi SE 8.1 mph - 0.00 in Rain Light Rain
2:53 PM 48.9 °F - 34.0 °F 56% 30.27 in 10.0 mi SSE 9.2 mph - 0.00 in Rain Light Rain
3:53 PM 48.9 °F - 37.0 °F 64% 30.25 in 10.0 mi SSE 8.1 mph - 0.00 in Rain Light Rain
4:53 PM 48.9 °F - 37.0 °F 64% 30.24 in 10.0 mi SE 8.1 mph - 0.00 in Rain Light Rain
5:53 PM 48.9 °F - 37.9 °F 66% 30.24 in 10.0 mi ESE 4.6 mph - 0.00 in Rain Light Rain
6:53 PM 46.9 °F - 39.9 °F 77% 30.21 in 10.0 mi ESE 5.8 mph - 0.00 in   Overcast
7:53 PM 50.0 °F - 37.0 °F 61% 30.17 in 10.0 mi SSE 15.0 mph - N/A   Overcast
8:53 PM 50.0 °F - 36.0 °F 59% 30.13 in 10.0 mi SSE 11.5 mph - N/A   Mostly Cloudy
9:53 PM 48.9 °F - 36.0 °F 61% 30.16 in 10.0 mi NW 8.1 mph - N/A   Mostly Cloudy
10:53 PM 45.0 °F 42.6 °F 37.9 °F 76% 30.16 in 10.0 mi West 4.6 mph - N/A   Mostly Cloudy
11:53 PM 42.1 °F 36.6 °F 39.0 °F 89% 30.18 in 10.0 mi West 9.2 mph - N/A   Mostly Cloudy